GW4340 Weather Reports


time (UTC)temp
C
wind
direction
speed
KPH
gust
KPH
rain 1hr
cm
rain 24hr
cm
rain mn
cm
humidity
%
barometer
mb
20260507161123 19 0.0 0.0 0.00 0.00 0.00 10 1015.0
20260507160223 19 0.0 0.0 0.00 0.00 0.00 10 1014.9
20260507155323 19 0.0 0.0 0.00 0.00 0.00 10 1014.9
20260507154422 19 0.0 0.0 0.00 0.00 0.00 97 1014.9
20260507153522 20 0.0 0.0 0.00 0.00 0.00 84 1014.5
20260507152638 20 0.0 0.0 0.00 0.00 0.00 83 1014.5
20260507151722 20 0.0 0.0 0.00 0.00 0.00 84 1014.6
20260507150823 20 0.0 0.0 0.00 0.00 0.00 83 1014.5
20260507145922 21 0.0 0.0 0.00 0.00 0.00 69 1014.4
20260507145023 21 0.0 0.0 0.00 0.00 0.00 66 1014.4
20260507144123 21 0.0 0.0 0.00 0.00 0.00 65 1014.3
20260507143222 21 0.0 0.0 0.00 0.00 0.00 65 1014.2
20260507142329 21 0.0 0.0 0.00 0.00 0.00 64 1014.3
20260507141439 21 0.0 0.0 0.00 0.00 0.00 63 1014.2
20260507140523 21 0.0 0.0 0.00 0.00 0.00 62 1014.1
20260507135622 22 0.0 0.0 0.00 0.00 0.00 61 1014.0
20260507134722 22 0.0 0.0 0.00 0.00 0.00 60 1013.9
20260507133822 22 0.0 0.0 0.00 0.00 0.00 61 1013.7
20260507132923 22 0.0 0.0 0.00 0.00 0.00 61 1013.7
20260507132022 22 0.0 0.0 0.00 0.00 0.00 59 1013.8
20260507131122 22 0.0 0.0 0.00 0.00 0.00 58 1013.9
20260507130223 22 0.0 0.0 0.00 0.00 0.00 58 1014.1
20260507125322 22 0.0 0.0 0.00 0.00 0.00 58 1014.0
20260507124422 22 0.0 0.0 0.00 0.00 0.00 57 1014.1
20260507123522 22 0.0 0.0 0.00 0.00 0.00 56 1014.1
20260507122622 22 0.0 0.0 0.00 0.00 0.00 55 1014.1
20260507121722 22 0.0 0.0 0.00 0.00 0.00 54 1014.0
20260507120822 22 0.0 0.0 0.00 0.00 0.00 52 1013.8
20260507115922 23 0.0 0.0 0.00 0.00 0.00 51 1013.6
20260507115022 24 0.0 0.0 0.00 0.00 0.00 48 1013.4
20260507114138 24 0.0 0.0 0.00 0.00 0.00 49 1013.5
20260507113223 25 0.0 0.0 0.00 0.00 0.00 48 1013.2
20260507112323 25 0.0 0.0 0.00 0.00 0.00 44 1013.1
20260507111423 25 0.0 0.0 0.00 0.00 0.00 47 1013.1
20260507110522 23 0.0 0.0 0.00 0.00 0.00 48 1013.6
20260507105622 23 0.0 0.0 0.00 0.00 0.00 51 1013.8
20260507104738 23 0.0 0.0 0.00 0.00 0.00 49 1013.8
20260507103823 23 0.0 0.0 0.00 0.00 0.00 50 1013.7
20260507102922 23 0.0 0.0 0.00 0.00 0.00 48 1013.6
20260507102022 23 0.0 0.0 0.00 0.00 0.00 50 1013.6
20260507101122 24 0.0 0.0 0.00 0.00 0.00 48 1013.5
20260507100223 24 0.0 0.0 0.00 0.00 0.00 48 1013.5
20260507095337 24 0.0 0.0 0.00 0.00 0.00 49 1013.5
20260507094422 25 0.0 0.0 0.00 0.00 0.00 44 1013.2
20260507093522 25 0.0 0.0 0.00 0.00 0.00 44 1013.2
20260507092622 25 0.0 0.0 0.00 0.00 0.00 43 1013.3
20260507091724 25 0.0 0.0 0.00 0.00 0.00 43 1013.3
20260507090822 25 0.0 0.0 0.00 0.00 0.00 42 1013.4
20260507085922 25 0.0 0.0 0.00 0.00 0.00 41 1013.4
20260507085022 24 0.0 0.0 0.00 0.00 0.00 42 1013.4
20260507084122 25 0.0 0.0 0.00 0.00 0.00 42 1013.4
20260507083223 24 0.0 0.0 0.00 0.00 0.00 43 1013.5
20260507082322 24 0.0 0.0 0.00 0.00 0.00 44 1013.4
20260507081423 24 0.0 0.0 0.00 0.00 0.00 42 1013.4
20260507080522 25 0.0 0.0 0.00 0.00 0.00 41 1013.4
20260507075622 25 0.0 0.0 0.00 0.00 0.00 42 1013.4
20260507074737 25 0.0 0.0 0.00 0.00 0.00 41 1013.2
20260507073838 26 0.0 0.0 0.00 0.00 0.00 40 1013.0
20260507072922 27 0.0 0.0 0.00 0.00 0.00 37 1012.7
20260507072022 26 0.0 0.0 0.00 0.00 0.00 39 1012.9
20260507071138 26 0.0 0.0 0.00 0.00 0.00 35 1012.8
20260507070222 29 0.0 0.0 0.00 0.00 0.00 38 1012.1
20260507065322 28 0.0 0.0 0.00 0.00 0.00 40 1012.5
20260507064422 29 0.0 0.0 0.00 0.00 0.00 39 1012.0
20260507063537 30 0.0 0.0 0.00 0.00 0.00 39 1012.0
20260507062622 30 0.0 0.0 0.00 0.00 0.00 39 1012.0
20260507061722 27 0.0 0.0 0.00 0.00 0.00 44 1012.6
20260507060822 28 0.0 0.0 0.00 0.00 0.00 41 1012.4
20260507055922 29 0.0 0.0 0.00 0.00 0.00 41 1012.1
20260507055038 26 0.0 0.0 0.00 0.00 0.00 47 1012.7
20260507054138 27 0.0 0.0 0.00 0.00 0.00 49 1012.5
20260507053237 22 0.0 0.0 0.00 0.00 0.00 70 1013.7
20260507052338 21 0.0 0.0 0.00 0.00 0.00 70 1014.0
20260507051423 18 0.0 0.0 0.00 0.00 0.00 77 1014.7
20260507050522 19 0.0 0.0 0.00 0.00 0.00 70 1014.6
20260507045622 18 0.0 0.0 0.00 0.00 0.00 76 1014.8
20260507044722 15 0.0 0.0 0.00 0.00 0.00 83 1015.4
20260507043822 14 0.0 0.0 0.00 0.00 0.00 99 1015.6
20260507042922 13 0.0 0.0 0.00 0.00 0.00 10 1015.8
20260507042022 12 0.0 0.0 0.00 0.00 0.00 10 1016.0
20260507041138 12 0.0 0.0 0.00 0.00 0.00 10 1016.1
20260507040222 12 0.0 0.0 0.00 0.00 0.00 10 1015.9
20260507035322 12 0.0 0.0 0.00 0.00 0.00 10 1015.8
20260507034422 12 0.0 0.0 0.00 0.00 0.00 10 1015.9
20260507033522 12 0.0 0.0 0.00 0.00 0.00 10 1015.9
20260507032637 11 0.0 0.0 0.00 0.00 0.00 10 1015.9
20260507031723 12 0.0 0.0 0.00 0.00 0.00 10 1015.7
20260507030837 11 0.0 0.0 0.00 0.00 0.00 10 1015.8
20260507025923 12 0.0 0.0 0.00 0.00 0.00 10 1015.7
20260507025023 12 0.0 0.0 0.00 0.00 0.00 10 1015.7
20260507024138 12 0.0 0.0 0.00 0.00 0.00 10 1015.6
20260507023223 11 0.0 0.0 0.00 0.00 0.00 10 1015.6
20260507022322 12 0.0 0.0 0.00 0.00 0.00 10 1015.5
20260507021422 12 0.0 0.0 0.00 0.00 0.00 10 1015.5
20260507020522 12 0.0 0.0 0.00 0.00 0.00 10 1015.3
20260507015622 12 0.0 0.0 0.00 0.00 0.00 10 1015.2
20260507014722 13 0.0 0.0 0.00 0.00 0.00 10 1015.1
20260507013853 13 0.0 0.0 0.00 0.00 0.00 10 1015.1
20260507012923 13 0.0 0.0 0.00 0.00 0.00 10 1015.0
20260507012022 13 0.0 0.0 0.00 0.00 0.00 93 1014.9
20260507011122 14 0.0 0.0 0.00 0.00 0.00 92 1014.7
20260507010222 13 0.0 0.0 0.00 0.00 0.00 10 1015.0
20260507005322 12 0.0 0.0 0.00 0.00 0.00 10 1015.1
20260507004438 12 0.0 0.0 0.00 0.00 0.00 10 1015.0
20260507003523 12 0.0 0.0 0.00 0.00 0.00 10 1015.0
20260507002638 12 0.0 0.0 0.00 0.00 0.00 10 1014.9
20260507001737 12 0.0 0.0 0.00 0.00 0.00 10 1014.9
20260507000822 12 0.0 0.0 0.00 0.00 0.00 10 1014.8
20260506235923 12 0.0 0.0 0.00 0.00 0.00 10 1015.0
20260506235022 11 0.0 0.0 0.00 0.00 0.00 10 1015.2
20260506234122 11 0.0 0.0 0.00 0.00 0.00 10 1015.1
20260506233222 11 0.0 0.0 0.00 0.00 0.00 10 1015.2
20260506232353 12 0.0 0.0 0.00 0.00 0.00 10 1015.2
20260506231422 12 0.0 0.0 0.00 0.00 0.00 10 1015.2
20260506230522 12 0.0 0.0 0.00 0.00 0.00 10 1015.2
20260506225622 12 0.0 0.0 0.00 0.00 0.00 10 1015.2
20260506224723 12 0.0 0.0 0.00 0.00 0.00 10 1015.1
20260506223842 12 0.0 0.0 0.00 0.00 0.00 10 1015.1
20260506222922 12 0.0 0.0 0.00 0.00 0.00 10 1015.1
20260506222022 12 0.0 0.0 0.00 0.00 0.00 10 1015.2
20260506221122 12 0.0 0.0 0.00 0.00 0.00 10 1015.1
20260506220222 12 0.0 0.0 0.00 0.00 0.00 10 1015.1
20260506215322 12 0.0 0.0 0.00 0.00 0.00 10 1015.1
20260506214423 12 0.0 0.0 0.00 0.00 0.00 10 1015.2
20260506213522 13 0.0 0.0 0.00 0.00 0.00 10 1015.1
20260506212622 13 0.0 0.0 0.00 0.00 0.00 10 1015.0
20260506211722 13 0.0 0.0 0.00 0.00 0.00 10 1015.1
20260506210824 13 0.0 0.0 0.00 0.00 0.00 10 1015.0
20260506205923 13 0.0 0.0 0.00 0.00 0.00 10 1015.1
20260506205022 13 0.0 0.0 0.00 0.00 0.00 10 1015.1
20260506204122 13 0.0 0.0 0.00 0.00 0.00 10 1015.0
20260506203222 14 0.0 0.0 0.00 0.00 0.00 10 1014.8
20260506202322 14 0.0 0.0 0.00 0.00 0.00 10 1014.9
20260506201423 13 0.0 0.0 0.00 0.00 0.00 10 1014.9
20260506200537 13 0.0 0.0 0.00 0.00 0.00 10 1014.9
20260506195622 13 0.0 0.0 0.00 0.00 0.00 10 1014.9
20260506194722 13 0.0 0.0 0.00 0.00 0.00 10 1015.0
20260506193822 13 0.0 0.0 0.00 0.00 0.00 10 1014.8
20260506192937 13 0.0 0.0 0.00 0.00 0.00 10 1014.8
20260506192051 13 0.0 0.0 0.00 0.00 0.00 10 1014.8
20260506191122 13 0.0 0.0 0.00 0.00 0.00 10 1014.8
20260506190223 13 0.0 0.0 0.00 0.00 0.00 97 1014.7
20260506185322 14 0.0 0.0 0.00 0.00 0.00 91 1014.4
20260506183523 15 0.0 0.0 0.00 0.00 0.00 87 1014.2
20260506182622 15 0.0 0.0 0.00 0.00 0.00 81 1013.9
20260506181722 15 0.0 0.0 0.00 0.00 0.00 78 1013.7
20260506180822 15 0.0 0.0 0.00 0.00 0.00 77 1013.5
20260506175922 16 0.0 0.0 0.00 0.00 0.00 70 1013.3
20260506175023 16 0.0 0.0 0.00 0.00 0.00 66 1013.2
20260506174122 17 0.0 0.0 0.00 0.00 0.00 61 1013.1
20260506173237 17 0.0 0.0 0.00 0.00 0.00 59 1012.7
20260506172343 18 0.0 0.0 0.00 0.00 0.00 56 1012.4
20260506171422 19 0.0 0.0 0.00 0.00 0.00 54 1012.3
20260506170522 20 0.0 0.0 0.00 0.00 0.00 51 1012.1
20260506165623 20 0.0 0.0 0.00 0.00 0.00 49 1011.8
20260506164722 21 0.0 0.0 0.00 0.00 0.00 45 1011.6
20260506163822 22 0.0 0.0 0.00 0.00 0.00 42 1011.4
20260506162922 22 0.0 0.0 0.00 0.00 0.00 41 1011.3
20260506162022 22 0.0 0.0 0.00 0.00 0.00 38 1011.1